User: anonymous   Login
Location: Theydon Bois
(51.6750°N, 0.1050°E)
Time: 08:00:14
(UTC+01:00)
Language:

BREEZE-M DEB (TANK) - Orbit

View from above orbital plane
View from above orbital plane
View from above satellite
View from above satellite

Ground track
Ground track

The orbit data is extracted from the following two-line orbital elements,

1 31863U 07032B   18174.70887356 -.00000047 +00000-0 -42790-5 0  9998
2 31863 045.9735 004.0195 4972496 347.5319 003.6628 05.52187649220004
Epoch (UTC): 23 June 2018 17:00:46
Eccentricity: 0.4972496
inclination: 45.9735°
perigee height: 419 km
apogee height: 13866 km
right ascension of ascending node: 4.0195°
argument of perigee: 347.5319°
revolutions per day: 5.52187649
mean anomaly at epoch: 3.6628°
orbit number at epoch: 22000

The dashed part of the orbit path shows where the satellite is in the earth's shadow,  

DLR